Flag for Germany Weather past 2 weeks in Walsrode, Lower Saxony, Germany

Now
43 °F

Sprinkles. Passing clouds.


Feels Like: 34 °F
Forecast: 36 / 45 °F
Wind: 21 mph from West

Location: Fassberg

Current Time: Dec 20, 2014 at 8:24:56 AM

Latest Report: Dec 20, 2014 at 7:20 AM


Visibility: N/A

Pressure: 29.86 "Hg

Humidity: 81%

Dew point: 37 °F

Location of WalsrodeLocation

Historic Weather in Walsrode — Graph

°F

Walsrode temperature yesterday

Maximum temperature yesterday: 52 °F (at 12:20 AM)
Minimum temperature yesterday: 41 °F (at 8:20 PM)
Average temperature yesterday: 48 °F

Past Weeks' High & Low Weather Summary

 TemperatureHumidityPressure
High54 °F (Dec 18, 8:20 PM)100% (Dec 5, 6:20 AM)30.33 "Hg (Dec 5, 6:20 AM)
Low32 °F (Dec 5, 6:20 AM)70% (Dec 10, 4:20 AM)29.27 "Hg (Dec 12, 2:20 PM)
Average40 °F89%29.86 "Hg
* Reported Dec 5 6:20 AM — Dec 20 6:20 AM, Walsrode, Weather by CustomWeather, © 2014

Note: Actual official high and low records may vary slightly from our data, if they occured in-between our weather recording intervals... More about our weather records

Advertising

Walsrode weather history for previous 24 hours

 ConditionsComfort  
Time TempWeatherWind HumidityBarometerVisibility
6:20 AM
Dec 20
43 °FPassing clouds.16 mph76%29.89 "HgN/A
5:20 AM43 °FPassing clouds.16 mph76%29.89 "HgN/A
4:20 AM43 °FPassing clouds.20 mph76%29.89 "HgN/A
3:20 AM43 °FPartly cloudy.20 mph76%29.89 "HgN/A
2:20 AM41 °FPassing clouds.20 mph81%29.89 "HgN/A
1:20 AM41 °FPartly cloudy.20 mph81%29.89 "HgN/A
12:20 AM41 °FPartly cloudy.12 mph87%29.86 "HgN/A
11:45 PM
Dec 19
41 °FPartly cloudy.15 mph87%29.86 "Hg5 mi
11:20 PM41 °FSprinkles. Passing clouds.17 mph87%29.86 "Hg3 mi
10:20 PM41 °FPassing clouds.16 mph81%29.86 "HgN/A
9:20 PM41 °FPartly cloudy.16 mph87%29.86 "HgN/A
8:20 PM41 °FRain showers. Passing clouds.18 mph81%29.83 "Hg2 mi
7:20 PM43 °FPassing clouds.14 mph81%29.80 "HgN/A
6:20 PM45 °FSprinkles. Passing clouds.16 mph76%29.80 "HgN/A
5:20 PM45 °FPassing clouds.14 mph81%29.77 "HgN/A
4:20 PM45 °FPassing clouds.14 mph87%29.74 "HgN/A
3:20 PM46 °FPartly sunny.12 mph82%29.71 "HgN/A
2:20 PM48 °FBroken clouds.15 mph82%29.68 "HgN/A
1:20 PM48 °FPartly sunny.14 mph87%29.68 "HgN/A
12:20 PM48 °FLight rain. Partly sunny.12 mph87%29.68 "HgN/A
11:20 AM50 °FHeavy rain. Fog.24 mph94%29.65 "Hg1 mi
10:20 AM52 °FRain. Partly sunny.22 mph94%29.62 "Hg4 mi
9:20 AM52 °FRain. Partly sunny.18 mph94%29.62 "Hg4 mi
8:20 AM52 °FLight rain. Fog.17 mph94%29.65 "Hg3 mi
Weather by CustomWeather, © 2014

See weather overviewHow to use our weather pages